,,,PA_Meas_PMT16A,,PR_Meas_QMR101_102,,RH_Meas_QMH101,,SR_Meas_QMS101,,TA_Meas_QMH101,,GenWind,,GenWind,
date,time,status,PA,status,PR,status,RH,status,SR,status,TA,status,DirAvg,status,SpdAvg,
2011-09-28, 00:00:04,VALID,1004.42,VALID,0,VALID,86.2369,VALID,0,VALID,26.7004,VALID,41,VALID,1.4,
2011-09-28, 00:01:04,VALID,1004.39,VALID,0,VALID,86.3513,VALID,0,VALID,26.7394,VALID,27,VALID,1.46719,
2011-09-28, 00:02:04,VALID,1004.42,VALID,0,VALID,86.069,VALID,0,VALID,26.7589,VALID,38,VALID,0.973437,
2011-09-28, 00:03:04,VALID,1004.41,VALID,0,VALID,86.0156,VALID,0,VALID,26.7783,VALID,92,VALID,1.14297,
2011-09-28, 00:04:04,VALID,1004.39,VALID,0,VALID,85.8325,VALID,0,VALID,26.7783,VALID,94,VALID,0.895312,
2011-09-28, 00:05:04,VALID,1004.4,VALID,0,VALID,85.7028,VALID,0,VALID,26.8173,VALID,84,VALID,1.4332,
2011-09-28, 00:06:04,VALID,1004.37,VALID,0,VALID,85.535,VALID,0,VALID,26.8173,VALID,111,VALID,0.624219,
2011-09-28, 00:07:04,VALID,1004.37,VALID,0,VALID,85.4587,VALID,0,VALID,26.8583,VALID,102,VALID,0.905469,
2011-09-28, 00:08:04,VALID,1004.37,VALID,0,VALID,85.741,VALID,0,VALID,26.7958,VALID,34,VALID,0.803516,
2011-09-28, 00:09:04,VALID,1004.37,VALID,0,VALID,85.6494,VALID,0,VALID,26.8193,VALID,102,VALID,1.23594,
2011-09-28, 00:10:04,VALID,1004.36,VALID,0,VALID,85.5503,VALID,0,VALID,26.7978,VALID,69,VALID,0.539063,
2011-09-28, 00:11:04,VALID,1004.37,VALID,0,VALID,85.7868,VALID,0,VALID,26.7783,VALID,360,VALID,0.512891,
2011-09-28, 00:12:04,VALID,1004.37,VALID,0,VALID,85.535,VALID,0.0815089,VALID,26.7978,VALID,61,VALID,1.04102,
2011-09-28, 00:13:04,VALID,1004.37,VALID,0,VALID,85.5121,VALID,0,VALID,26.7783,VALID,25,VALID,1.175,
2011-09-28, 00:14:04,VALID,1004.4,VALID,0,VALID,85.5884,VALID,0,VALID,26.7783,VALID,27,VALID,0.630469,
2011-09-28, 00:15:04,VALID,1004.39,VALID,0,VALID,85.7105,VALID,0.0815089,VALID,26.7568,VALID,66,VALID,0.253125,
2011-09-28, 00:16:04,VALID,1004.39,VALID,0,VALID,85.8173,VALID,0,VALID,26.7394,VALID,13,VALID,0.876953,
2011-09-28, 00:17:04,VALID,1004.38,VALID,0,VALID,85.9088,VALID,0,VALID,26.7394,VALID,15,VALID,0.765234,
2011-09-28, 00:18:04,VALID,1004.35,VALID,0,VALID,86.1529,VALID,0,VALID,26.6789,VALID,24,VALID,0.866016,
2011-09-28, 00:19:04,VALID,1004.33,VALID,0,VALID,86.0538,VALID,0,VALID,26.6594,VALID,78,VALID,0.441797,
2011-09-28, 00:20:04,VALID,1004.29,VALID,0,VALID,86.3894,VALID,0,VALID,26.6809,VALID,21,VALID,0.458203,
2011-09-28, 00:21:04,VALID,1004.24,VALID,0,VALID,85.7562,VALID,0,VALID,26.6225,VALID,20,VALID,1.07227,
2011-09-28, 00:22:04,VALID,1004.22,VALID,0,VALID,85.802,VALID,0,VALID,26.642,VALID,357,VALID,0.73125,
2011-09-28, 00:23:04,VALID,1004.16,VALID,0,VALID,86.3132,VALID,0,VALID,26.6225,VALID,14,VALID,0.725781,
2011-09-28, 00:24:04,VALID,1004.16,VALID,0,VALID,86.4962,VALID,0,VALID,26.5835,VALID,12,VALID,0.438672,
2011-09-28, 00:25:04,VALID,1004.09,VALID,0,VALID,86.5191,VALID,0.0815089,VALID,26.5446,VALID,15,VALID,0.969141,
2011-09-28, 00:26:04,VALID,1004.1,VALID,0,VALID,86.42,VALID,0,VALID,26.5056,VALID,12,VALID,1.21641,
2011-09-28, 00:27:04,VALID,1004.07,VALID,0,VALID,86.748,VALID,0,VALID,26.5056,VALID,32,VALID,0.892187,
2011-09-28, 00:28:04,VALID,1004.08,VALID,0,VALID,86.5191,VALID,0,VALID,26.4881,VALID,51,VALID,0.876562,
2011-09-28, 00:29:04,VALID,1004.01,VALID,0,VALID,86.4276,VALID,0,VALID,26.4667,VALID,19,VALID,0.642969,
2011-09-28, 00:30:04,VALID,1004.01,VALID,0,VALID,86.6031,VALID,0.0815089,VALID,26.4667,VALID,324,VALID,0.826953,
2011-09-28, 00:31:04,VALID,1004.01,VALID,0,VALID,86.9464,VALID,0.0815089,VALID,26.4472,VALID,6,VALID,0.527734,
2011-09-28, 00:32:04,VALID,1004.02,VALID,0,VALID,87.1294,VALID,0.0815089,VALID,26.3673,VALID,348,VALID,0.687109,
2011-09-28, 00:33:04,VALID,1003.99,VALID,0,VALID,87.3125,VALID,0,VALID,26.3498,VALID,353,VALID,0.710938,
2011-09-28, 00:34:04,VALID,1003.97,VALID,0,VALID,87.3202,VALID,0.0815089,VALID,26.3303,VALID,356,VALID,0.803906,
2011-09-28, 00:35:04,VALID,1003.97,VALID,0,VALID,87.7474,VALID,0.0815089,VALID,26.2913,VALID,339,VALID,0.787109,
2011-09-28, 00:36:04,VALID,1003.95,VALID,0,VALID,87.8389,VALID,0,VALID,26.2544,VALID,347,VALID,1.46094,
2011-09-28, 00:37:04,VALID,1003.96,VALID,0,VALID,87.816,VALID,0,VALID,26.2719,VALID,348,VALID,0.846094,
2011-09-28, 00:38:04,VALID,1003.95,VALID,0,VALID,88.0831,VALID,0,VALID,26.2114,VALID,344,VALID,1.02188,
2011-09-28, 00:39:04,VALID,1003.95,VALID,0,VALID,88.7773,VALID,0.0815089,VALID,26.1745,VALID,4,VALID,0.926562,
2011-09-28, 00:40:04,VALID,1003.91,VALID,0,VALID,88.9833,VALID,0,VALID,26.116,VALID,353,VALID,0.649219,
2011-09-28, 00:41:04,VALID,1003.88,VALID,0,VALID,89.1053,VALID,0,VALID,26.0381,VALID,6,VALID,1.60195,
2011-09-28, 00:42:04,VALID,1003.88,VALID,0,VALID,89.4181,VALID,0.0815089,VALID,26.0187,VALID,11,VALID,0.977734,
2011-09-28, 00:43:04,VALID,1003.86,VALID,0,VALID,89.5478,VALID,0.0815089,VALID,25.9797,VALID,19,VALID,0.960547,
2011-09-28, 00:44:04,VALID,1003.84,VALID,0,VALID,89.853,VALID,0,VALID,25.9213,VALID,7,VALID,0.811328,
2011-09-28, 00:45:04,VALID,1003.81,VALID,0,VALID,89.9826,VALID,0,VALID,25.8823,VALID,350,VALID,0.648047,
2011-09-28, 00:46:04,VALID,1003.81,VALID,0,VALID,90.2649,VALID,0,VALID,25.8434,VALID,1,VALID,0.66875,
2011-09-28, 00:47:04,VALID,1003.78,VALID,0,VALID,90.0818,VALID,0,VALID,25.8239,VALID,6,VALID,1.26563,
2011-09-28, 00:48:04,VALID,1003.78,VALID,0,VALID,90.1886,VALID,0,VALID,25.8648,VALID,13,VALID,0.700781,
2011-09-28, 00:49:04,VALID,1003.73,VALID,0,VALID,89.9445,VALID,0,VALID,25.8629,VALID,241,VALID,0.216797,
2011-09-28, 00:50:04,VALID,1003.76,VALID,0,VALID,89.8911,VALID,0.0815089,VALID,25.8998,VALID,299,VALID,0.370313,
2011-09-28, 00:51:04,VALID,1003.77,VALID,0,VALID,89.2121,VALID,0,VALID,25.9992,VALID,63,VALID,0.449219,
2011-09-28, 00:52:04,VALID,1003.78,VALID,0,VALID,88.556,VALID,0,VALID,26.0771,VALID,359,VALID,1.42578,
2011-09-28, 00:53:04,VALID,1003.76,VALID,0,VALID,88.2585,VALID,0,VALID,26.155,VALID,39,VALID,0.515625,
2011-09-28, 00:54:04,VALID,1003.78,VALID,0,VALID,88.0144,VALID,0.0815089,VALID,26.1725,VALID,346,VALID,0.906641,
2011-09-28, 00:55:04,VALID,1003.79,VALID,0,VALID,88.0525,VALID,0.0815089,VALID,26.2524,VALID,8,VALID,0.774219,
2011-09-28, 00:56:04,VALID,1003.82,VALID,0,VALID,87.6787,VALID,0.0815089,VALID,26.2913,VALID,10,VALID,0.639063,
2011-09-28, 00:57:04,VALID,1003.79,VALID,0,VALID,87.7398,VALID,0,VALID,26.2524,VALID,18,VALID,1.12422,
2011-09-28, 00:58:04,VALID,1003.8,VALID,0,VALID,87.7932,VALID,0.0815089,VALID,26.2309,VALID,8,VALID,1.06758,
2011-09-28, 00:59:04,VALID,1003.77,VALID,0,VALID,87.7626,VALID,0.0815089,VALID,26.2504,VALID,25,VALID,1.29688,
2011-09-28, 01:00:04,VALID,1003.79,VALID,0,VALID,88.1059,VALID,0,VALID,26.2114,VALID,28,VALID,0.807031,
2011-09-28, 01:01:04,VALID,1003.76,VALID,0,VALID,88.2585,VALID,0,VALID,26.194,VALID,357,VALID,1.02617,
2011-09-28, 01:02:04,VALID,1003.76,VALID,0,VALID,88.4569,VALID,0,VALID,26.155,VALID,349,VALID,1.28555,
2011-09-28, 01:03:04,VALID,1003.76,VALID,0,VALID,87.4499,VALID,0,VALID,26.157,VALID,360,VALID,2.28359,
2011-09-28, 01:04:04,VALID,1003.72,VALID,0,VALID,87.6558,VALID,0,VALID,26.2329,VALID,351,VALID,1.1875,
2011-09-28, 01:05:04,VALID,1003.74,VALID,0,VALID,87.8542,VALID,0,VALID,26.2544,VALID,29,VALID,0.685156,
2011-09-28, 01:06:04,VALID,1003.68,VALID,0,VALID,88.022,VALID,0,VALID,26.2134,VALID,28,VALID,0.602344,
2011-09-28, 01:07:04,VALID,1003.71,VALID,0,VALID,88.4645,VALID,0,VALID,26.1959,VALID,25,VALID,0.176953,
2011-09-28, 01:08:04,VALID,1003.72,VALID,0,VALID,88.701,VALID,0,VALID,26.1375,VALID,26,VALID,0.974219,
2011-09-28, 01:09:04,VALID,1003.73,VALID,0,VALID,88.8536,VALID,0,VALID,26.0771,VALID,347,VALID,1.00469,
2011-09-28, 01:10:04,VALID,1003.71,VALID,0,VALID,88.968,VALID,0,VALID,26.0401,VALID,8,VALID,0.262109,
2011-09-28, 01:11:04,VALID,1003.72,VALID,0,VALID,89.0748,VALID,0,VALID,26.0187,VALID,30,VALID,0.396875,
2011-09-28, 01:12:04,VALID,1003.69,VALID,0,VALID,89.38,VALID,0,VALID,26.0206,VALID,18,VALID,0.830469,
2011-09-28, 01:13:04,VALID,1003.69,VALID,0,VALID,89.6851,VALID,0,VALID,25.9388,VALID,30,VALID,1.20195,
2011-09-28, 01:14:04,VALID,1003.66,VALID,0,VALID,89.7233,VALID,0,VALID,25.9427,VALID,39,VALID,0.318359,
2011-09-28, 01:15:04,VALID,1003.64,VALID,0,VALID,89.5631,VALID,0,VALID,25.9213,VALID,18,VALID,0.565625,
2011-09-28, 01:16:04,VALID,1003.66,VALID,0,VALID,89.4868,VALID,0,VALID,25.9427,VALID,2,VALID,0.102734,
2011-09-28, 01:17:04,VALID,1003.61,VALID,0,VALID,89.5402,VALID,0,VALID,25.9408,VALID,357,VALID,0.915234,
2011-09-28, 01:18:04,VALID,1003.58,VALID,0,VALID,89.4563,VALID,0,VALID,25.9817,VALID,354,VALID,0.879687,
2011-09-28, 01:19:04,VALID,1003.59,VALID,0,VALID,89.5859,VALID,0,VALID,25.9602,VALID,12,VALID,0.637109,
2011-09-28, 01:20:04,VALID,1003.57,VALID,0,VALID,89.4181,VALID,0,VALID,26.0012,VALID,5,VALID,1.06016,
2011-09-28, 01:21:04,VALID,1003.55,VALID,0,VALID,89.4105,VALID,0,VALID,25.9602,VALID,17,VALID,1.40273,
2011-09-28, 01:22:04,VALID,1003.53,VALID,0,VALID,89.4028,VALID,0,VALID,25.9797,VALID,21,VALID,0.9,
2011-09-28, 01:23:04,VALID,1003.5,VALID,0,VALID,89.4028,VALID,0,VALID,25.9602,VALID,9,VALID,0.992969,
2011-09-28, 01:24:04,VALID,1003.5,VALID,0,VALID,89.4868,VALID,0,VALID,25.9797,VALID,27,VALID,1.19648,
2011-09-28, 01:25:04,VALID,1003.52,VALID,0,VALID,89.6165,VALID,0,VALID,25.9817,VALID,352,VALID,1.15898,
2011-09-28, 01:26:04,VALID,1003.49,VALID,0,VALID,89.5554,VALID,0,VALID,25.9602,VALID,26,VALID,1.21445,
2011-09-28, 01:27:04,VALID,1003.49,VALID,0,VALID,89.8072,VALID,0,VALID,25.9602,VALID,75,VALID,0.778906,
2011-09-28, 01:28:04,VALID,1003.51,VALID,0,VALID,89.9216,VALID,0,VALID,25.9622,VALID,345,VALID,1.29844,
2011-09-28, 01:29:04,VALID,1003.48,VALID,0,VALID,89.4563,VALID,0,VALID,25.9602,VALID,7,VALID,1.41484,
2011-09-28, 01:30:04,VALID,1003.49,VALID,0,VALID,89.3723,VALID,0,VALID,26.0187,VALID,15,VALID,1.15078,
2011-09-28, 01:31:04,VALID,1003.47,VALID,0,VALID,89.4334,VALID,0,VALID,26.0187,VALID,5,VALID,0.844922,
2011-09-28, 01:32:04,VALID,1003.46,VALID,0,VALID,89.6088,VALID,0,VALID,26.0381,VALID,22,VALID,1.10273,
2011-09-28, 01:33:04,VALID,1003.48,VALID,0,VALID,89.4639,VALID,0,VALID,25.9992,VALID,348,VALID,1.04141,
2011-09-28, 01:34:04,VALID,1003.47,VALID,0,VALID,89.6165,VALID,0,VALID,25.9992,VALID,339,VALID,1.18984,
2011-09-28, 01:35:04,VALID,1003.48,VALID,0,VALID,89.8224,VALID,0,VALID,26.0012,VALID,346,VALID,1.35508,
2011-09-28, 01:36:04,VALID,1003.48,VALID,0,VALID,89.8758,VALID,0,VALID,25.9622,VALID,346,VALID,1.07695,
2011-09-28, 01:37:04,VALID,1003.48,VALID,0,VALID,89.9903,VALID,0,VALID,25.9232,VALID,346,VALID,1.12109,
2011-09-28, 01:38:04,VALID,1003.47,VALID,0,VALID,89.9979,VALID,0,VALID,25.8823,VALID,347,VALID,1.66055,
2011-09-28, 01:39:04,VALID,1003.48,VALID,0,VALID,90.2573,VALID,0,VALID,25.9038,VALID,340,VALID,1.5043,
2011-09-28, 01:40:04,VALID,1003.48,VALID,0,VALID,90.4633,VALID,0,VALID,25.8629,VALID,359,VALID,0.909375,
2011-09-28, 01:41:04,VALID,1003.45,VALID,0,VALID,90.4633,VALID,0,VALID,25.8239,VALID,351,VALID,1.13867,
2011-09-28, 01:42:04,VALID,1003.45,VALID,0,VALID,90.4327,VALID,0,VALID,25.8453,VALID,353,VALID,1.58828,
2011-09-28, 01:43:04,VALID,1003.45,VALID,0,VALID,90.6692,VALID,0,VALID,25.8453,VALID,27,VALID,1.05273,
2011-09-28, 01:44:04,VALID,1003.44,VALID,0,VALID,90.5853,VALID,0,VALID,25.8064,VALID,341,VALID,1.10039,
2011-09-28, 01:45:04,VALID,1003.42,VALID,0,VALID,89.9979,VALID,0,VALID,25.8259,VALID,343,VALID,2.19648,
2011-09-28, 01:46:04,VALID,1003.37,VALID,0,VALID,89.4257,VALID,0,VALID,25.9602,VALID,341,VALID,2.25391,
2011-09-28, 01:47:04,VALID,1003.42,VALID,0,VALID,89.3418,VALID,0,VALID,26.0206,VALID,38,VALID,0.736328,
2011-09-28, 01:48:04,VALID,1003.41,VALID,0,VALID,89.647,VALID,0,VALID,26.0206,VALID,351,VALID,1.11133,
2011-09-28, 01:49:04,VALID,1003.41,VALID,0,VALID,89.4944,VALID,0,VALID,25.9622,VALID,28,VALID,2.28008,
2011-09-28, 01:50:04,VALID,1003.38,VALID,0,VALID,89.5402,VALID,0,VALID,25.9797,VALID,359,VALID,0.927734,
2011-09-28, 01:51:04,VALID,1003.39,VALID,0,VALID,89.2884,VALID,0,VALID,26.0012,VALID,359,VALID,1.23281,
2011-09-28, 01:52:04,VALID,1003.38,VALID,0,VALID,89.1816,VALID,0,VALID,26.0206,VALID,8,VALID,0.696875,
2011-09-28, 01:53:04,VALID,1003.37,VALID,0,VALID,88.7391,VALID,0,VALID,26.0012,VALID,11,VALID,1.33945,
2011-09-28, 01:54:04,VALID,1003.37,VALID,0,VALID,88.9222,VALID,0,VALID,26.0187,VALID,10,VALID,0.446094,
2011-09-28, 01:55:04,VALID,1003.33,VALID,0,VALID,89.1206,VALID,0,VALID,25.9992,VALID,25,VALID,0.807813,
2011-09-28, 01:56:04,VALID,1003.33,VALID,0,VALID,88.9146,VALID,0,VALID,26.0012,VALID,21,VALID,1.38867,
2011-09-28, 01:57:04,VALID,1003.32,VALID,0,VALID,88.1517,VALID,0,VALID,26.0206,VALID,25,VALID,1.40977,
2011-09-28, 01:58:04,VALID,1003.32,VALID,0,VALID,88.2509,VALID,0,VALID,26.0381,VALID,1,VALID,1.28437,
2011-09-28, 01:59:04,VALID,1003.29,VALID,0,VALID,88.5713,VALID,0,VALID,26.0596,VALID,346,VALID,0.535547,
2011-09-28, 02:00:04,VALID,1003.31,VALID,0,VALID,88.701,VALID,0,VALID,25.9992,VALID,18,VALID,1.2918,
2011-09-28, 02:01:04,VALID,1003.32,VALID,0,VALID,88.8536,VALID,0,VALID,25.9797,VALID,8,VALID,1.06172,
2011-09-28, 02:02:04,VALID,1003.31,VALID,0,VALID,88.8383,VALID,0,VALID,25.9602,VALID,17,VALID,1.15508,
2011-09-28, 02:03:04,VALID,1003.29,VALID,0,VALID,89.0519,VALID,0,VALID,26.0012,VALID,348,VALID,1.20313,
2011-09-28, 02:04:04,VALID,1003.29,VALID,0,VALID,88.8688,VALID,0,VALID,25.9992,VALID,350,VALID,1.08242,
2011-09-28, 02:05:04,VALID,1003.29,VALID,0,VALID,89.1358,VALID,0,VALID,26.0012,VALID,12,VALID,1.00586,
2011-09-28, 02:06:04,VALID,1003.25,VALID,0,VALID,88.8993,VALID,0,VALID,25.9408,VALID,341,VALID,0.891406,
2011-09-28, 02:07:04,VALID,1003.25,VALID,0,VALID,89.0977,VALID,0,VALID,25.9408,VALID,360,VALID,1.01758,
2011-09-28, 02:08:04,VALID,1003.2,VALID,0,VALID,89.029,VALID,0,VALID,25.9232,VALID,50,VALID,1.12734,
2011-09-28, 02:09:04,VALID,1003.2,VALID,0,VALID,89.0977,VALID,0,VALID,25.9602,VALID,14,VALID,0.616406,
2011-09-28, 02:10:04,VALID,1003.15,VALID,0,VALID,88.9833,VALID,0,VALID,25.9602,VALID,77,VALID,0.55,
2011-09-28, 02:11:04,VALID,1003.12,VALID,0,VALID,89.296,VALID,0,VALID,25.9408,VALID,20,VALID,0.544141,
2011-09-28, 02:12:04,VALID,1003.12,VALID,0,VALID,88.9222,VALID,0,VALID,25.9408,VALID,27,VALID,0.978906,
2011-09-28, 02:13:04,VALID,1003.11,VALID,0,VALID,88.7391,VALID,0,VALID,25.9817,VALID,5,VALID,0.394531,
2011-09-28, 02:14:04,VALID,1003.07,VALID,0,VALID,88.6018,VALID,0,VALID,26.0187,VALID,58,VALID,0.828906,
2011-09-28, 02:15:04,VALID,1003.05,VALID,0,VALID,88.3119,VALID,0,VALID,26.0791,VALID,46,VALID,0.594531,
2011-09-28, 02:16:04,VALID,1003.02,VALID,0,VALID,87.9991,VALID,0,VALID,26.0771,VALID,66,VALID,0.897656,
2011-09-28, 02:17:04,VALID,1003.04,VALID,0,VALID,88.1212,VALID,0,VALID,26.1355,VALID,58,VALID,0.460938,
2011-09-28, 02:18:04,VALID,1003.01,VALID,0,VALID,87.9991,VALID,0,VALID,26.1355,VALID,25,VALID,0.663281,
2011-09-28, 02:19:04,VALID,1003.02,VALID,0,VALID,88.2738,VALID,0,VALID,26.1765,VALID,17,VALID,0.659375,
2011-09-28, 02:20:04,VALID,1002.99,VALID,0,VALID,88.2127,VALID,0,VALID,26.1784,VALID,29,VALID,0.334375,
2011-09-28, 02:21:04,VALID,1002.97,VALID,0,VALID,88.4035,VALID,0,VALID,26.116,VALID,42,VALID,0.420312,
2011-09-28, 02:22:04,VALID,1002.98,VALID,0,VALID,88.3195,VALID,0,VALID,26.1375,VALID,56,VALID,0.495703,
2011-09-28, 02:23:04,VALID,1002.95,VALID,0,VALID,88.3119,VALID,0,VALID,26.2154,VALID,94,VALID,1.20898,
2011-09-28, 02:24:04,VALID,1002.97,VALID,0,VALID,88.1899,VALID,0,VALID,26.2134,VALID,70,VALID,1.52422,
2011-09-28, 02:25:04,VALID,1002.95,VALID,0,VALID,88.0907,VALID,0,VALID,26.2134,VALID,106,VALID,1.1793,
2011-09-28, 02:26:04,VALID,1002.96,VALID,0,VALID,87.8313,VALID,0,VALID,26.2349,VALID,14,VALID,0.759766,
2011-09-28, 02:27:04,VALID,1002.97,VALID,0,VALID,88.1593,VALID,0,VALID,26.2329,VALID,62,VALID,0.553125,
2011-09-28, 02:28:04,VALID,1002.95,VALID,0,VALID,88.022,VALID,0,VALID,26.2134,VALID,27,VALID,0.521484,
2011-09-28, 02:29:04,VALID,1002.98,VALID,0,VALID,87.9076,VALID,0,VALID,26.2544,VALID,91,VALID,1.03164,
2011-09-28, 02:30:04,VALID,1003.01,VALID,0,VALID,88.0678,VALID,0,VALID,26.2134,VALID,109,VALID,0.766016,
2011-09-28, 02:31:04,VALID,1002.99,VALID,0,VALID,87.7474,VALID,0,VALID,26.2349,VALID,104,VALID,1.23984,
2011-09-28, 02:32:04,VALID,1003.02,VALID,0,VALID,88.0525,VALID,0,VALID,26.2544,VALID,98,VALID,0.602344,
2011-09-28, 02:33:04,VALID,1003.01,VALID,0,VALID,88.1136,VALID,0,VALID,26.2349,VALID,153,VALID,0.501172,
2011-09-28, 02:34:04,VALID,1002.98,VALID,0,VALID,87.9762,VALID,0,VALID,26.2369,VALID,39,VALID,0.833984,
2011-09-28, 02:35:04,VALID,1002.99,VALID,0,VALID,87.9305,VALID,0,VALID,26.2154,VALID,88,VALID,0.592578,
2011-09-28, 02:36:04,VALID,1003,VALID,0,VALID,87.8618,VALID,0,VALID,26.2349,VALID,74,VALID,0.948047,
2011-09-28, 02:37:04,VALID,1002.98,VALID,0,VALID,87.9076,VALID,0,VALID,26.2369,VALID,101,VALID,1.13867,
2011-09-28, 02:38:04,VALID,1002.98,VALID,0,VALID,88.0373,VALID,0,VALID,26.2154,VALID,80,VALID,0.620703,
2011-09-28, 02:39:04,VALID,1002.98,VALID,0,VALID,87.9762,VALID,0,VALID,26.2154,VALID,70,VALID,0.890625,
2011-09-28, 02:40:04,VALID,1002.97,VALID,0,VALID,87.9457,VALID,0,VALID,26.2154,VALID,73,VALID,0.880469,
2011-09-28, 02:41:04,VALID,1002.98,VALID,0,VALID,88.0983,VALID,0,VALID,26.194,VALID,48,VALID,0.366797,
2011-09-28, 02:42:04,VALID,1002.99,VALID,0,VALID,87.9076,VALID,0,VALID,26.2349,VALID,24,VALID,0.746875,
2011-09-28, 02:43:04,VALID,1002.99,VALID,0,VALID,87.6024,VALID,0,VALID,26.2933,VALID,126,VALID,0.888281,
2011-09-28, 02:44:05,VALID,1003,VALID,0,VALID,87.7016,VALID,0,VALID,26.3128,VALID,48,VALID,0.377344,
2011-09-28, 02:45:05,VALID,1003.05,VALID,0,VALID,87.5567,VALID,0,VALID,26.3128,VALID,51,VALID,0.808984,
2011-09-28, 02:46:05,VALID,1003.03,VALID,0,VALID,87.3507,VALID,0,VALID,26.3323,VALID,119,VALID,0.951172,
2011-09-28, 02:47:05,VALID,1003.06,VALID,0,VALID,87.343,VALID,0,VALID,26.3907,VALID,101,VALID,1.45078,
2011-09-28, 02:48:05,VALID,1003.05,VALID,0,VALID,87.1371,VALID,0.0815089,VALID,26.4277,VALID,101,VALID,1.10977,
2011-09-28, 02:49:05,VALID,1003.1,VALID,0,VALID,87.0989,VALID,0,VALID,26.4277,VALID,94,VALID,0.537891,
2011-09-28, 02:50:05,VALID,1003.08,VALID,0,VALID,87.0379,VALID,0.0815089,VALID,26.3887,VALID,102,VALID,0.662891,
2011-09-28, 02:51:05,VALID,1003.1,VALID,0,VALID,87.1447,VALID,0.0815089,VALID,26.4082,VALID,97,VALID,0.661328,
2011-09-28, 02:52:05,VALID,1003.08,VALID,0,VALID,87.282,VALID,0.0815089,VALID,26.4082,VALID,111,VALID,0.924219,
2011-09-28, 02:53:05,VALID,1003.1,VALID,0,VALID,87.1371,VALID,0,VALID,26.4667,VALID,102,VALID,1.00234,
2011-09-28, 02:54:05,VALID,1003.11,VALID,0,VALID,86.7327,VALID,0,VALID,26.4841,VALID,86,VALID,1.08828,
2011-09-28, 02:55:05,VALID,1003.06,VALID,0,VALID,86.4276,VALID,0.0815089,VALID,26.5641,VALID,81,VALID,1.6957,
2011-09-28, 02:56:05,VALID,1003.07,VALID,0,VALID,86.687,VALID,0,VALID,26.5641,VALID,85,VALID,0.382813,
2011-09-28, 02:57:05,VALID,1003.08,VALID,0,VALID,86.4657,VALID,0.0815089,VALID,26.5641,VALID,102,VALID,0.936328,
2011-09-28, 02:58:05,VALID,1003.06,VALID,0,VALID,86.748,VALID,0,VALID,26.5231,VALID,83,VALID,0.440625,
2011-09-28, 02:59:05,VALID,1003.05,VALID,0,VALID,86.4123,VALID,0,VALID,26.5446,VALID,67,VALID,1.17813,
2011-09-28, 03:00:05,VALID,1003.08,VALID,0,VALID,86.4352,VALID,0,VALID,26.5446,VALID,93,VALID,1.20742,
2011-09-28, 03:01:05,VALID,1003.04,VALID,0,VALID,86.6488,VALID,0.0815089,VALID,26.5641,VALID,58,VALID,0.653125,
2011-09-28, 03:02:05,VALID,1003.06,VALID,0,VALID,86.3818,VALID,0,VALID,26.5251,VALID,92,VALID,1.30117,
2011-09-28, 03:03:05,VALID,1003.1,VALID,0,VALID,86.4962,VALID,0,VALID,26.5271,VALID,109,VALID,1.39063,
2011-09-28, 03:04:05,VALID,1003.08,VALID,0,VALID,86.6565,VALID,0,VALID,26.4881,VALID,83,VALID,0.793359,
2011-09-28, 03:05:05,VALID,1003.11,VALID,0,VALID,86.7633,VALID,0,VALID,26.4881,VALID,88,VALID,1.10547,
2011-09-28, 03:06:05,VALID,1003.12,VALID,0,VALID,86.8472,VALID,0,VALID,26.4687,VALID,90,VALID,0.577344,
2011-09-28, 03:07:05,VALID,1003.14,VALID,0,VALID,86.8319,VALID,0,VALID,26.4492,VALID,112,VALID,1.06289,
2011-09-28, 03:08:05,VALID,1003.16,VALID,0,VALID,86.7099,VALID,0,VALID,26.4297,VALID,129,VALID,0.681641,
2011-09-28, 03:09:05,VALID,1003.17,VALID,0,VALID,87.0379,VALID,0,VALID,26.4102,VALID,130,VALID,0.91875,
2011-09-28, 03:10:05,VALID,1003.18,VALID,0,VALID,87.221,VALID,0,VALID,26.4122,VALID,130,VALID,0.933984,
2011-09-28, 03:11:05,VALID,1003.18,VALID,0,VALID,87.1981,VALID,0,VALID,26.3713,VALID,137,VALID,1.19844,
2011-09-28, 03:12:05,VALID,1003.18,VALID,0,VALID,87.1905,VALID,0,VALID,26.3303,VALID,133,VALID,0.764453,
2011-09-28, 03:13:05,VALID,1003.18,VALID,0,VALID,87.1828,VALID,0,VALID,26.3713,VALID,126,VALID,0.763281,
2011-09-28, 03:14:05,VALID,1003.21,VALID,0,VALID,87.3507,VALID,0,VALID,26.3518,VALID,158,VALID,0.889453,
2011-09-28, 03:15:05,VALID,1003.22,VALID,0,VALID,87.694,VALID,0,VALID,26.3518,VALID,143,VALID,0.761719,
2011-09-28, 03:16:05,VALID,1003.19,VALID,0,VALID,87.7016,VALID,0,VALID,26.3128,VALID,137,VALID,0.371875,
2011-09-28, 03:17:05,VALID,1003.21,VALID,0,VALID,87.6711,VALID,0,VALID,26.2933,VALID,132,VALID,1.07734,
2011-09-28, 03:18:05,VALID,1003.2,VALID,0,VALID,88.0754,VALID,0,VALID,26.2719,VALID,131,VALID,0.326172,
2011-09-28, 03:19:05,VALID,1003.2,VALID,0,VALID,88.0525,VALID,0,VALID,26.2739,VALID,122,VALID,0.334766,
2011-09-28, 03:20:05,VALID,1003.21,VALID,0,VALID,87.9381,VALID,0,VALID,26.2329,VALID,132,VALID,1.00703,
2011-09-28, 03:21:05,VALID,1003.2,VALID,0,VALID,88.1593,VALID,0,VALID,26.2524,VALID,126,VALID,0.753516,
2011-09-28, 03:22:05,VALID,1003.18,VALID,0,VALID,88.1212,VALID,0,VALID,26.2524,VALID,115,VALID,0.391797,
2011-09-28, 03:23:05,VALID,1003.17,VALID,0,VALID,88.3577,VALID,0.0815089,VALID,26.2524,VALID,113,VALID,0.438672,
2011-09-28, 03:24:05,VALID,1003.16,VALID,0,VALID,88.3424,VALID,0,VALID,26.2329,VALID,113,VALID,0.519141,
2011-09-28, 03:25:05,VALID,1003.14,VALID,0,VALID,88.167,VALID,0,VALID,26.2349,VALID,100,VALID,0.679688,
2011-09-28, 03:26:05,VALID,1003.15,VALID,0,VALID,88.3119,VALID,0,VALID,26.2134,VALID,101,VALID,0.372656,
2011-09-28, 03:27:05,VALID,1003.14,VALID,0,VALID,88.4187,VALID,0,VALID,26.194,VALID,101,VALID,0.177344,
2011-09-28, 03:28:05,VALID,1003.15,VALID,0,VALID,88.5866,VALID,0,VALID,26.1745,VALID,90,VALID,0.68125,
2011-09-28, 03:29:05,VALID,1003.12,VALID,0,VALID,88.6018,VALID,0,VALID,26.1745,VALID,92,VALID,0.189063,
2011-09-28, 03:30:05,VALID,1003.13,VALID,0,VALID,88.7239,VALID,0.0815089,VALID,26.1959,VALID,92,VALID,0.138281,
2011-09-28, 03:31:05,VALID,1003.11,VALID,0,VALID,88.7315,VALID,0,VALID,26.155,VALID,92,VALID,0.357422,
2011-09-28, 03:32:05,VALID,1003.14,VALID,0,VALID,89.0138,VALID,0,VALID,26.157,VALID,91,VALID,0.341406,
2011-09-28, 03:33:05,VALID,1003.09,VALID,0,VALID,89.2884,VALID,0,VALID,26.0771,VALID,65,VALID,0.377734,
2011-09-28, 03:34:05,VALID,1003.08,VALID,0,VALID,89.4639,VALID,0,VALID,26.0791,VALID,65,VALID,0.259375,
2011-09-28, 03:35:05,VALID,1003.05,VALID,0,VALID,89.5936,VALID,0,VALID,26.0401,VALID,65,VALID,0.221875,
2011-09-28, 03:36:05,VALID,1003.04,VALID,0,VALID,89.3723,VALID,0,VALID,26.0381,VALID,73,VALID,0.492578,
2011-09-28, 03:37:05,VALID,1003.02,VALID,0,VALID,89.2426,VALID,0,VALID,26.0791,VALID,29,VALID,0.515625,
2011-09-28, 03:38:05,VALID,1003.01,VALID,0,VALID,89.5249,VALID,0,VALID,26.0985,VALID,37,VALID,0.441406,
2011-09-28, 03:39:05,VALID,1003.01,VALID,0,VALID,89.3189,VALID,0,VALID,26.0791,VALID,25,VALID,0.5125,
2011-09-28, 03:40:05,VALID,1002.97,VALID,0,VALID,89.3647,VALID,0,VALID,26.0791,VALID,17,VALID,0.709766,
2011-09-28, 03:41:05,VALID,1002.97,VALID,0,VALID,89.3189,VALID,0,VALID,26.0966,VALID,20,VALID,0.491797,
2011-09-28, 03:42:05,VALID,1002.94,VALID,0,VALID,89.1664,VALID,0,VALID,26.118,VALID,74,VALID,0.403516,
2011-09-28, 03:43:05,VALID,1002.97,VALID,0,VALID,89.0824,VALID,0,VALID,26.116,VALID,75,VALID,0.392188,
2011-09-28, 03:44:05,VALID,1002.92,VALID,0,VALID,88.9756,VALID,0,VALID,26.157,VALID,16,VALID,0.659766,